Greensboro, NC

12:28 AM EDT on June 24, 2017 (GMT -0400)
Piedmont Triad International

Weather History for KGSO - August, 2013

Change the Weather History Date:

Sunday, August 25, 2013

  Actual Average Record
Temperature  
Mean Temperature 70 °F 76 °F  
Max Temperature 79 °F 85 °F 98 °F (1914)
Min Temperature 60 °F 67 °F 50 °F (1952)
Degree Days  
Heating Degree Days 0 0  
Month to date heating degree days 2 0  
Since 1 June heating degree days 2 6  
Since 1 July heating degree days 2 0  
Cooling Degree Days 5 11  
Month to date cooling degree days 241 313  
Year to date cooling degree days 1090 1198  
Since 1 June cooling degree days 940 1039  
Growing Degree Days 20 (Base 50)    
Moisture  
Dew Point 58 °F    
Average Humidity 68    
Maximum Humidity 90    
Minimum Humidity 45    
Precipitation  
Precipitation 0.00 in 0.14 in 2.10 in (1908)
Month to date precipitation 5.62 3.12  
Year to date precipitation 38.36 28.03  
Sea Level Pressure  
Sea Level Pressure 30.33 in    
Wind  
Wind Speed 4 mph (ENE)    
Max Wind Speed 14 mph    
Max Gust Speed 17 mph    
Visibility 10 miles    
Events      
T = Trace of Precipitation, MM = Missing Value Source: NWS Daily Summary

Daily Weather History Graph

Daily Weather History Graph

Search for Another Location

Airport or City:

Trip Planner

Search our weather history database for the weather conditions in past years. The results will help you decide how hot, cold, wet, or windy it might be!

Date:

Astronomy

Aug. 25, 2013 Rise Set
Actual Time 6:46 AM EDT 7:56 PM EDT
Civil Twilight 6:19 AM EDT 8:23 PM EDT
Nautical Twilight 5:47 AM EDT 8:54 PM EDT
Astronomical Twilight 5:14 AM EDT 9:27 PM EDT
Moon 10:38 PM EDT (8/25) 11:35 AM EDT (8/25)
Length of Visible Light 14h 03m
Length of Day
13h 10m
Waning Gibbous, 76% of the Moon is Illuminated
Aug 25
Waning Gibbous
Aug 28
Last Quarter
Sep 5
New
Sep 12
First Quarter
Sep 19
Full

Hourly Weather History & Observations

Time (EDT) Temp. Dew Point Humidity Pressure Visibility Wind Dir Wind Speed Gust Speed Precip Events Conditions
12:54 AM 64.0 °F 60.1 °F 87% 30.31 in 10.0 mi Calm Calm - N/A   Clear
1:54 AM 64.0 °F 60.1 °F 87% 30.30 in 10.0 mi Calm Calm - N/A   Clear
2:54 AM 64.0 °F 59.0 °F 84% 30.30 in 10.0 mi Calm Calm - N/A   Clear
3:54 AM 63.0 °F 59.0 °F 87% 30.30 in 10.0 mi Calm Calm - N/A   Clear
4:54 AM 62.1 °F 59.0 °F 90% 30.31 in 10.0 mi North 3.5 mph - N/A   Clear
5:54 AM 60.1 °F 57.9 °F 93% 30.32 in 10.0 mi Calm Calm - N/A   Clear
6:54 AM 60.1 °F 57.9 °F 93% 30.36 in 10.0 mi NNE 3.5 mph - N/A   Partly Cloudy
7:54 AM 62.1 °F 59.0 °F 90% 30.38 in 10.0 mi NNE 3.5 mph - N/A   Partly Cloudy
8:54 AM 66.0 °F 61.0 °F 84% 30.39 in 10.0 mi NE 4.6 mph - N/A   Partly Cloudy
9:54 AM 70.0 °F 62.1 °F 76% 30.39 in 10.0 mi North 3.5 mph - N/A   Partly Cloudy
10:54 AM 73.0 °F 61.0 °F 66% 30.40 in 10.0 mi NNE 5.8 mph - N/A   Scattered Clouds
11:54 AM 75.0 °F 61.0 °F 62% 30.38 in 10.0 mi ENE 6.9 mph - N/A   Mostly Cloudy
12:54 PM 75.9 °F 59.0 °F 56% 30.36 in 10.0 mi East 8.1 mph - N/A   Mostly Cloudy
1:54 PM 77.0 °F 59.0 °F 54% 30.36 in 10.0 mi NE 12.7 mph - N/A   Mostly Cloudy
2:54 PM 78.1 °F 57.0 °F 48% 30.33 in 10.0 mi East 8.1 mph 16.1 mph N/A   Mostly Cloudy
3:54 PM 77.0 °F 57.0 °F 50% 30.31 in 10.0 mi East 8.1 mph - N/A   Mostly Cloudy
4:54 PM 78.1 °F 55.9 °F 46% 30.31 in 10.0 mi East 11.5 mph - N/A   Mostly Cloudy
5:54 PM 75.9 °F 54.0 °F 46% 30.31 in 10.0 mi East 9.2 mph - N/A   Scattered Clouds
6:54 PM 75.0 °F 55.0 °F 50% 30.30 in 10.0 mi East 8.1 mph - N/A   Scattered Clouds
7:54 PM 71.1 °F 55.9 °F 59% 30.30 in 10.0 mi East 4.6 mph - N/A   Scattered Clouds
8:54 PM 70.0 °F 55.9 °F 61% 30.30 in 10.0 mi East 3.5 mph - N/A   Clear
9:54 PM 68.0 °F 57.9 °F 70% 30.32 in 10.0 mi Calm Calm - N/A   Clear
10:54 PM 64.0 °F 57.9 °F 80% 30.32 in 10.0 mi Calm Calm - N/A   Clear
11:54 PM 63.0 °F 57.9 °F 84% 30.32 in 10.0 mi Calm Calm - N/A   Clear